Allure of the Seas — C6XS8 — position and weather

sailwx.info

Track history (hours):
 
Tides and Currents Weather Stations Pressure Air Temp Water Temp Dewpoint Dewpoint Depression Visibility Wind Speed Wind Dir Waves Ship Positions

Allure of the Seas

Last reported at 2018-Feb-24 18:00 UTC. Time now 2018-Feb-25 07:26 UTC.
Position N 24°54' W 075°18'.

Length 362 m; draft 9.3 m.

Type: Passenger vessel. MMSI: 311020700.

Wind from 110 at 18 knots

Barometer 1024.0 mb
Air temperature 25.0 ° C
Visibility: greater than 10.8 NM
Dewpoint 18.8 ° C
Water temperature 27.0 ° C

Date/timePositionNaut miles runAvg speedWind from/ knotsBaromVisibWave heightAir tempDewpointWater temp
2018-Feb-24 18:00N 24°54' W 075°18'10717.9 110 / 181024.010.8 25.018.827.0
2018-Feb-24 12:00N 24°00' W 073°36'33019.4 100 / 251024.010.8 22.018.927.0
2018-Feb-23 19:00N 21°18' W 068°24'13519.3 080 / 301023.010.8 23.018.327.0
2018-Feb-23 12:00N 20°12' W 066°18'20719.9 070 / 251024.010.8 25.020.528.0
2018-Feb-23 01:35N 18°01' W 063°28'219.2
2018-Feb-23 01:29N 17°60' W 063°27'1020.0
2018-Feb-23 01:00N 17°52' W 063°21'1119.9
2018-Feb-23 00:28N 17°44' W 063°14'1319.9
2018-Feb-22 23:49N 17°33' W 063°06'16 1.3
2018-Feb-22 11:10N 17°19' W 062°57'1911.1
2018-Feb-22 09:25N 17°36' W 063°07'612.5
2018-Feb-22 08:57N 17°42' W 063°09'612.4
2018-Feb-22 08:30N 17°44' W 063°15'612.2
2018-Feb-22 08:00N 17°47' W 063°20'612.0
2018-Feb-22 07:29N 17°49' W 063°26'711.8
2018-Feb-22 06:56N 17°52' W 063°33'60414.1
2018-Feb-20 12:00N 23°18' W 072°36'42311.6 080 / 251025.010.8 24.019.428.0
2018-Feb-18 23:36N 26°08' W 079°43'215.9
2018-Feb-18 23:30N 26°07' W 079°45'816.0
2018-Feb-18 23:00N 26°07' W 079°54'715.0
2018-Feb-18 22:30N 26°06' W 080°02'4 8.8
2018-Feb-18 22:00N 26°06' W 080°07'0 0.8
2018-Feb-18 21:29N 26°05' W 080°07'0 0.0
2018-Feb-18 20:59N 26°05' W 080°07'0 0.0
2018-Feb-18 20:29N 26°05' W 080°07'0 0.0
2018-Feb-18 19:59N 26°05' W 080°07'0 0.0
2018-Feb-18 19:29N 26°05' W 080°07'0 0.0
2018-Feb-18 18:59N 26°05' W 080°07'0 0.0
2018-Feb-18 18:29N 26°05' W 080°07'0 0.0
2018-Feb-18 17:59N 26°05' W 080°07'0 0.0
2018-Feb-18 17:29N 26°05' W 080°07'0 0.0
2018-Feb-18 16:59N 26°05' W 080°07'0 0.0
2018-Feb-18 16:29N 26°05' W 080°07'0 0.0
2018-Feb-18 15:59N 26°05' W 080°07'0 0.0
2018-Feb-18 15:29N 26°05' W 080°07'0 0.0
2018-Feb-18 14:59N 26°05' W 080°07'0 0.0
2018-Feb-18 14:29N 26°05' W 080°07'0 0.0
2018-Feb-18 13:59N 26°05' W 080°07'0 0.0
2018-Feb-18 13:29N 26°05' W 080°07'0 0.0
2018-Feb-18 12:59N 26°05' W 080°07'0 0.0
2018-Feb-18 12:26N 26°05' W 080°07'0 0.0
2018-Feb-18 11:59N 26°05' W 080°07'0 0.0
2018-Feb-18 11:29N 26°05' W 080°07'0 0.0
2018-Feb-18 10:59N 26°05' W 080°07'0 0.1
2018-Feb-18 10:30N 26°05' W 080°07'4 7.2
2018-Feb-18 10:01N 26°06' W 080°03'5 9.7
2018-Feb-18 09:31N 26°04' W 079°58'612.5
2018-Feb-18 09:00N 26°02' W 079°52'713.8
2018-Feb-18 08:30N 25°59' W 079°45'713.5
2018-Feb-18 08:01N 25°53' W 079°40'814.9
2018-Feb-18 07:30N 25°46' W 079°40'715.1
2018-Feb-18 07:00N 25°38' W 079°40'31016.3
2018-Feb-17 12:00N 22°48' W 084°24'19916.9 120 / 201021.010.8 24.019.428.0
2018-Feb-17 00:15N 20°32' W 086°60'2 9.8
2018-Feb-17 00:00N 20°30' W 086°59'1 1.4
2018-Feb-16 23:29N 20°29' W 086°59'0 0.0
2018-Feb-16 22:59N 20°29' W 086°59'0 0.0
2018-Feb-16 22:29N 20°29' W 086°59'0 0.0
2018-Feb-16 21:59N 20°29' W 086°59'0 0.0
2018-Feb-16 21:29N 20°29' W 086°59'0 0.0
2018-Feb-16 20:59N 20°29' W 086°59'0 0.0
2018-Feb-16 20:29N 20°29' W 086°59'0 0.0
2018-Feb-16 19:59N 20°29' W 086°59'0 0.0
2018-Feb-16 19:29N 20°29' W 086°59'0 0.0
2018-Feb-16 18:56N 20°29' W 086°59'0 0.0
2018-Feb-16 18:29N 20°29' W 086°59'0 0.0
2018-Feb-16 17:59N 20°29' W 086°59'0 0.0
2018-Feb-16 17:29N 20°29' W 086°59'0 0.0
2018-Feb-16 16:59N 20°29' W 086°59'0 0.0
2018-Feb-16 16:23N 20°29' W 086°59'0 0.0
2018-Feb-16 15:59N 20°29' W 086°59'0 0.0
2018-Feb-16 15:29N 20°29' W 086°59'0 0.0
2018-Feb-16 14:59N 20°29' W 086°59'0 0.0
2018-Feb-16 14:29N 20°29' W 086°59'0 0.0
2018-Feb-16 13:59N 20°29' W 086°59'0 0.0
2018-Feb-16 13:29N 20°29' W 086°59'0 0.0
2018-Feb-16 12:59N 20°29' W 086°59'0 0.6
2018-Feb-16 12:30N 20°29' W 086°59'4 8.1
2018-Feb-16 12:00N 20°33' W 086°59'  
Track history (hours):
 
Tides and Currents Weather Stations Pressure Air Temp Water Temp Dewpoint Dewpoint Depression Visibility Wind Speed Wind Dir Waves Ship Positions

Allure of the Seas

Last reported at 2018-Feb-24 18:00 UTC. Time now 2018-Feb-25 07:26 UTC.
Position N 24°54' W 075°18'.

Length 362 m; draft 9.3 m.

Type: Passenger vessel. MMSI: 311020700.

Wind from 110 at 18 knots

Barometer 1024.0 mb
Air temperature 25.0 ° C
Visibility: greater than 10.8 NM
Dewpoint 18.8 ° C
Water temperature 27.0 ° C

Date/timePositionNaut miles runAvg speedWind from/ knotsBaromVisibWave heightAir tempDewpointWater temp
2018-Feb-24 18:00N 24°54' W 075°18'10717.9 110 / 181024.010.8 25.018.827.0
2018-Feb-24 12:00N 24°00' W 073°36'33019.4 100 / 251024.010.8 22.018.927.0
2018-Feb-23 19:00N 21°18' W 068°24'13519.3 080 / 301023.010.8 23.018.327.0
2018-Feb-23 12:00N 20°12' W 066°18'20719.9 070 / 251024.010.8 25.020.528.0
2018-Feb-23 01:35N 18°01' W 063°28'219.2
2018-Feb-23 01:29N 17°60' W 063°27'1020.0
2018-Feb-23 01:00N 17°52' W 063°21'1119.9
2018-Feb-23 00:28N 17°44' W 063°14'1319.9
2018-Feb-22 23:49N 17°33' W 063°06'16 1.3
2018-Feb-22 11:10N 17°19' W 062°57'1911.1
2018-Feb-22 09:25N 17°36' W 063°07'612.5
2018-Feb-22 08:57N 17°42' W 063°09'612.4
2018-Feb-22 08:30N 17°44' W 063°15'612.2
2018-Feb-22 08:00N 17°47' W 063°20'612.0
2018-Feb-22 07:29N 17°49' W 063°26'711.8
2018-Feb-22 06:56N 17°52' W 063°33'60414.1
2018-Feb-20 12:00N 23°18' W 072°36'42311.6 080 / 251025.010.8 24.019.428.0
2018-Feb-18 23:36N 26°08' W 079°43'215.9
2018-Feb-18 23:30N 26°07' W 079°45'816.0
2018-Feb-18 23:00N 26°07' W 079°54'715.0
2018-Feb-18 22:30N 26°06' W 080°02'4 8.8
2018-Feb-18 22:00N 26°06' W 080°07'0 0.8
2018-Feb-18 21:29N 26°05' W 080°07'0 0.0
2018-Feb-18 20:59N 26°05' W 080°07'0 0.0
2018-Feb-18 20:29N 26°05' W 080°07'0 0.0
2018-Feb-18 19:59N 26°05' W 080°07'0 0.0
2018-Feb-18 19:29N 26°05' W 080°07'0 0.0
2018-Feb-18 18:59N 26°05' W 080°07'0 0.0
2018-Feb-18 18:29N 26°05' W 080°07'0 0.0
2018-Feb-18 17:59N 26°05' W 080°07'0 0.0
2018-Feb-18 17:29N 26°05' W 080°07'0 0.0
2018-Feb-18 16:59N 26°05' W 080°07'0 0.0
2018-Feb-18 16:29N 26°05' W 080°07'0 0.0
2018-Feb-18 15:59N 26°05' W 080°07'0 0.0
2018-Feb-18 15:29N 26°05' W 080°07'0 0.0
2018-Feb-18 14:59N 26°05' W 080°07'0 0.0
2018-Feb-18 14:29N 26°05' W 080°07'0 0.0
2018-Feb-18 13:59N 26°05' W 080°07'0 0.0
2018-Feb-18 13:29N 26°05' W 080°07'0 0.0
2018-Feb-18 12:59N 26°05' W 080°07'0 0.0
2018-Feb-18 12:26N 26°05' W 080°07'0 0.0
2018-Feb-18 11:59N 26°05' W 080°07'0 0.0
2018-Feb-18 11:29N 26°05' W 080°07'0 0.0
2018-Feb-18 10:59N 26°05' W 080°07'0 0.1
2018-Feb-18 10:30N 26°05' W 080°07'4 7.2
2018-Feb-18 10:01N 26°06' W 080°03'5 9.7
2018-Feb-18 09:31N 26°04' W 079°58'612.5
2018-Feb-18 09:00N 26°02' W 079°52'713.8
2018-Feb-18 08:30N 25°59' W 079°45'713.5
2018-Feb-18 08:01N 25°53' W 079°40'814.9
2018-Feb-18 07:30N 25°46' W 079°40'715.1
2018-Feb-18 07:00N 25°38' W 079°40'31016.3
2018-Feb-17 12:00N 22°48' W 084°24'19916.9 120 / 201021.010.8 24.019.428.0
2018-Feb-17 00:15N 20°32' W 086°60'2 9.8
2018-Feb-17 00:00N 20°30' W 086°59'1 1.4
2018-Feb-16 23:29N 20°29' W 086°59'0 0.0
2018-Feb-16 22:59N 20°29' W 086°59'0 0.0
2018-Feb-16 22:29N 20°29' W 086°59'0 0.0
2018-Feb-16 21:59N 20°29' W 086°59'0 0.0
2018-Feb-16 21:29N 20°29' W 086°59'0 0.0
2018-Feb-16 20:59N 20°29' W 086°59'0 0.0
2018-Feb-16 20:29N 20°29' W 086°59'0 0.0
2018-Feb-16 19:59N 20°29' W 086°59'0 0.0
2018-Feb-16 19:29N 20°29' W 086°59'0 0.0
2018-Feb-16 18:56N 20°29' W 086°59'0 0.0
2018-Feb-16 18:29N 20°29' W 086°59'0 0.0
2018-Feb-16 17:59N 20°29' W 086°59'0 0.0
2018-Feb-16 17:29N 20°29' W 086°59'0 0.0
2018-Feb-16 16:59N 20°29' W 086°59'0 0.0
2018-Feb-16 16:23N 20°29' W 086°59'0 0.0
2018-Feb-16 15:59N 20°29' W 086°59'0 0.0
2018-Feb-16 15:29N 20°29' W 086°59'0 0.0
2018-Feb-16 14:59N 20°29' W 086°59'0 0.0
2018-Feb-16 14:29N 20°29' W 086°59'0 0.0
2018-Feb-16 13:59N 20°29' W 086°59'0 0.0
2018-Feb-16 13:29N 20°29' W 086°59'0 0.0
2018-Feb-16 12:59N 20°29' W 086°59'0 0.6
2018-Feb-16 12:30N 20°29' W 086°59'4 8.1
2018-Feb-16 12:00N 20°33' W 086°59'  

Dump ship's entire track history